{"data":{"norad_id":50169,"intl_designator":"2021-125P","name":"STARLINK-3301","alt_names":[],"object_type":"PAYLOAD","status":"ACTIVE","operator":null,"country":"US","launch_date":"2021-12-18","launch_site_code":"AFWTR","launch_vehicle":null,"mission":null,"orbit_class":"UNKNOWN","rcs_meters":null,"size_class":null,"mass_kg":null,"dimensions":null,"purposes":["comms"],"wikipedia_slug":null,"has_3d_model":false,"image_url":null,"decayed_at":null,"tle_current":{"epoch":"2026-09-20T02:50:44.376288Z","epoch_age_seconds":77725,"freshness":"FRESH","line1":"1 50169U 21125P   26263.11856917  .00001203  00000+0  46757-4 0  9997","line2":"2 50169  53.1607  79.7493 0001096  93.1493 266.9635 15.34390022266188","mean_motion":15.34390022,"eccentricity":0.0001096,"inclination_deg":53.1607,"raan_deg":79.7493,"arg_perigee_deg":93.1493,"mean_anomaly_deg":266.9635,"bstar":4.6757e-5,"rev_number":26618,"period_min":93.848368364846,"perigee_km":461.98313774586,"apogee_km":463.48265642731,"semimajor_km":6840.8698970866,"source":"CELESTRAK","updated_at":"2026-09-20T09:00:39.414430Z"}}}